Hourly Data Report for March 05, 2003

TORONTO CITY
ONTARIO

43°40'00.000" N
79°24'00.000" W
112.50 m
6158355
71508
XTO

Download Data

Hourly Data (March 2003)
Hourly Data Report for March 5, 2003
TIME
LST
Temp Definition
°C
Dew Point Definition
°C
Rel Hum Definition
%
Precip. Amount Definition
mm

Wind Dir Definition
10's deg

Wind Spd Definition
km/h
Visibility Definition
km
Stn Press Definition
kPa
Hmdx Definition


Wind Chill Definition


Weather Definition


00:00 -3.0 -3.8 94   LegendMM LegendMM LegendMM 99.59     LegendNANA
01:00 -4.0 -4.8 94   LegendMM LegendMM LegendMM 99.56     LegendNANA
02:00 -4.5 -5.4 93   LegendMM LegendMM LegendMM 99.44     LegendNANA
03:00 -4.4 -5.2 94   LegendMM LegendMM LegendMM 99.37     LegendNANA
04:00 -4.3 -5.1 94   LegendMM LegendMM LegendMM 99.26     LegendNANA
05:00 -4.2 -5.0 94   LegendMM LegendMM LegendMM 99.21     LegendNANA
06:00 -3.9 -4.7 94   LegendMM LegendMM LegendMM 99.11     LegendNANA
07:00 -4.1 -4.9 94   LegendMM LegendMM LegendMM 98.99     LegendNANA
08:00 -4.3 -5.2 93   LegendMM LegendMM LegendMM 98.98     LegendNANA
09:00 -4.5 -5.4 93   LegendMM LegendMM LegendMM 98.98     LegendNANA
10:00 -4.3 -5.2 93   LegendMM LegendMM LegendMM 99.00     LegendNANA
11:00 -3.7 -4.8 92   LegendMM LegendMM LegendMM 99.06     LegendNANA
12:00 -3.0 -4.5 89   LegendMM LegendMM LegendMM 99.12     LegendNANA
13:00 -2.9 -4.5 89   LegendMM LegendMM LegendMM 99.19     LegendNANA
14:00 -2.1 -5.0 80   LegendMM LegendMM LegendMM 99.26     LegendNANA
15:00 -2.6 -6.2 76   LegendMM LegendMM LegendMM 99.39     LegendNANA
16:00 -3.3 -7.4 73   LegendMM LegendMM LegendMM 99.56     LegendNANA
17:00 -4.1 -9.0 69   LegendMM LegendMM LegendMM 99.68     LegendNANA
18:00 -5.3 -10.7 66   LegendMM LegendMM LegendMM 99.85     LegendNANA
19:00 -6.2 -11.4 67   LegendMM LegendMM LegendMM 99.91     LegendNANA
20:00 -6.7 -12.7 62   LegendMM LegendMM LegendMM 100.02     LegendNANA
21:00 -7.3 -12.1 68   LegendMM LegendMM LegendMM 100.07     LegendNANA
22:00 -7.3 -11.4 72   LegendMM LegendMM LegendMM 100.13     LegendNANA
23:00 -7.9 -12.0 72   LegendMM LegendMM LegendMM 100.11     LegendNANA

Notes on Data Quality.

Legend

  • E = Estimated
  • M = Missing
  • NA = Not Available*
  • [empty] = Indicates an unobserved value
Date modified: